This is the latest recevied weather packets stored in our database for station/object K0SDS. If no packets are shown the sender has not sent any weather packets the latest 10 day(s).
| Time | Temp. | Humidity | Pressure | Rain* | Wind** | Luminosity | Snow |
|---|---|---|---|---|---|---|---|
| 1777500219 | 15.56° C | 52% | 1017.9 hPa | 0 mm | - | 259 W/m² | - |
| 1777499916 | 15.56° C | 55% | 1017.8 hPa | 0 mm | - | 198 W/m² | - |
| 1777499612 | 15.56° C | 56% | 1017.8 hPa | 0 mm | - | 199 W/m² | - |
| 1777499310 | 15.56° C | 58% | 1018 hPa | 0 mm | - | 184 W/m² | - |
| 1777499007 | 15.56° C | 54% | 1018.1 hPa | 0 mm | - | 179 W/m² | - |
| 1777498703 | 15.56° C | 54% | 1017.8 hPa | 0 mm | - | 186 W/m² | - |
| 1777498400 | 16.11° C | 57% | 1018 hPa | 0 mm | - | 185 W/m² | - |
| 1777498097 | 16.11° C | 55% | 1018 hPa | 0 mm | - | 185 W/m² | - |
| 1777497794 | 16.11° C | 59% | 1018.1 hPa | 0 mm | - | 199 W/m² | - |
| 1777497491 | 16.11° C | 53% | 1018.1 hPa | 0 mm | - | 304 W/m² | - |
| 1777497187 | 16.67° C | 56% | 1018.4 hPa | 0 mm | - | 369 W/m² | - |
| 1777496884 | 16.11° C | 57% | 1018.3 hPa | 0 mm | - | 266 W/m² | - |
| 1777496581 | 16.11° C | 57% | 1018.5 hPa | 0 mm | - | 327 W/m² | - |
| 1777496277 | 15.56° C | 56% | 1018.6 hPa | 0 mm | - | 252 W/m² | - |
| 1777495973 | 15.56° C | 54% | 1018.5 hPa | 0 mm | - | 242 W/m² | - |
| 1777495669 | 15.56° C | 54% | 1018.7 hPa | 0 mm | - | 228 W/m² | - |
| 1777495365 | 15.56° C | 56% | 1018.7 hPa | 0 mm | - | 249 W/m² | - |
| 1777495062 | 15.56° C | 57% | 1018.9 hPa | 0 mm | - | 275 W/m² | - |
| 1777494759 | 15.56° C | 55% | 1019 hPa | 0 mm | - | 273 W/m² | - |
| 1777494457 | 15.56° C | 54% | 1019.3 hPa | 0 mm | - | 249 W/m² | - |
| 1777494153 | 16.11° C | 54% | 1019.3 hPa | 0 mm | - | 273 W/m² | - |
| 1777493850 | 15.56° C | 55% | 1019 hPa | 0 mm | - | 310 W/m² | - |
| 1777493548 | 15.56° C | 54% | 1019.1 hPa | 0 mm | - | 305 W/m² | - |
| 1777493245 | 15.56° C | 53% | 1019 hPa | 0 mm | - | 281 W/m² | - |
| 1777492942 | 15.56° C | 55% | 1019.6 hPa | 0 mm | - | 279 W/m² | - |
* Rain latest hour (hover to see other rain measurements)
** Current wind speed in m/s (hover to see current wind gust speed)